Weather Roundup
Issued by NWS Chicago, IL

Home | Current Version | Previous Version | Text Only | Print | Product List | Glossary On
Versions: 1 2 3 4 5 6 7 8 9 10 11 12 13 14 15 16 17 18 19 20 21 22 23 24 25 26 27 28 29 30 31 32 33 34 35 36 37 38 39 40 41 42 43 44 45 46 47 48 49 50
000
NZUS59 KLOT 272209
HRRLOT

CHICAGO AREA WEATHER ROUNDUP
NATIONAL WEATHER SERVICE CHICAGO/ROMEOVILLE IL
500 PM CDT SAT AUG 27 2016

NOTE: "FAIR" INDICATES FEW OR NO CLOUDS BELOW 12,000 FEET WITH NO
SIGNIFICANT WEATHER AND/OR OBSTRUCTIONS TO VISIBILITY.

* THESE STATIONS ARE NOT UNDER NWS QUALITY CONTROL. THEY ALSO MAY NOT
  REPORT WEATHER SUCH AS PRECIPITATION OR FOG.

ILZ005-006-012>014-019>023-272300-
NORTHEAST ILLINOIS

CITY           SKY/WX    TMP DP  RH WIND       PRES   REMARKS
OHARE          PTSUNNY   83  69  62 SW10      30.00F HX  86
MIDWAY         PTSUNNY   85  70  60 SW13      30.00F HX  89
AURORA         MOSUNNY   82  72  71 S12       30.02S HX  87
LANSING*       MOSUNNY   84  74  72 SW12      30.02S HX  91
JOLIET*        MOSUNNY   86  73  64 SW6       30.02S HX  92
WAUKEGAN       PTSUNNY   77  70  79 SE3       30.00S
DUPAGE AIRPORT MOSUNNY   82  70  66 SW10      30.01S HX  86
WHEELING       MOSUNNY   83  69  62 SW7       30.01F HX  86
KANKAKEE*      MOSUNNY   87  72  61 SW8       30.04S HX  93
MORRIS*        MOSUNNY   84  71  63 SW7       30.01S HX  89
LEWIS AIRPORT* MOSUNNY   83  74  73 SW9       30.02S HX  89
NORTHERLY ISL    N/A     85  67  54 S7          N/A  HX  87
$$

WIZ051-052-058>065-066-070>072-272300-
SOUTHEAST WISCONSIN

CITY           SKY/WX    TMP DP  RH WIND       PRES   REMARKS
MILWAUKEE      PTSUNNY   77  70  79 N6        30.00R
KENOSHA*       CLOUDY    80  71  74 SW6       30.01S HX  84
RACINE*        CLOUDY    77  69  76 S10       30.02R
BURLINGTON     CLOUDY    79  70  73 SW3       30.00S HX  82
WAUKESHA       MOSUNNY   77  68  73 S7        30.01S
$$

INZ001>003-010>013-019-020-272300-
NORTHWEST INDIANA

CITY           SKY/WX    TMP DP  RH WIND       PRES   REMARKS
GARY*          MOSUNNY   86  72  62 SW9       30.02S HX  92
MICHIGAN CITY* NOT AVBL
RENSSELAER*    NOT AVBL
VALPARAISO     PTSUNNY   83  73  72 SW9       30.04S HX  89
$$

LMZ740>746-272300-
SOUTHERN LAKE MICHIGAN

STATION/POSITION TIME  SKY/WX   TEMP WIND        PRES    VSBY
                                AIR  DIR/SP/G
                 (UTC)          (F)  (DEG/KT/KT) (MB)    (MI)
HARRISON CRIB    2100            79  150/  7/  8   N/A
BURNHAM HARBOR   2200            85  190/ 10/ 11   N/A
CALUMET HARBOR   2100            83  190/  6/ 10 1016.0F
BURNS HARBOR     2100            83  220/ 12/ 16 1016.9F
MICHIGAN CITY    2100            82  190/ 10/ 12   N/A
$$

ABBREVIATIONS USED IN REMARKS
   TC - TEMPERATURE IN CELSIUS
  WCI - WIND CHILL INDEX
   HX - HEAT INDEX
  VSB - VISIBILITY
$$




USA.gov is the U.S. government's official web portal to all federal, state and local government web resources and services.